Williams, AZ

12:25 AM MST on December 14, 2017 (GMT -0700)
Williams

Weather History for KCMR - April, 2014

Change the Weather History Date:

Monday, April 28, 2014

  Actual Average (K40G) Record (K40G)
Temperature  
Mean Temperature 47 °F -  
Max Temperature 57 °F 61 °F 73 °F (1997)
Min Temperature 37 °F 52 °F 48 °F (1997)
Degree Days  
Heating Degree Days 18    
Moisture  
Dew Point 18 °F    
Average Humidity 33    
Maximum Humidity 52    
Minimum Humidity 17    
Precipitation  
Precipitation 0.00 in - - ()
Sea Level Pressure  
Sea Level Pressure 30.17 in    
Wind  
Wind Speed 10 mph (WNW)    
Max Wind Speed 21 mph    
Max Gust Speed 33 mph    
Visibility 10 miles    
Events      
Averages and records for this station are not official NWS values.
T = Trace of Precipitation, MM = Missing Value Source: NWS Daily Summary

Daily Weather History Graph

Daily Weather History Graph

Search for Another Location

Airport or City:

Trip Planner

Search our weather history database for the weather conditions in past years. The results will help you decide how hot, cold, wet, or windy it might be!

Date:

Astronomy

Apr. 28, 2014 Rise Set
Actual Time 5:40 AM MST 7:12 PM MST
Civil Twilight 5:13 AM MST 7:39 PM MST
Nautical Twilight 4:41 AM MST 8:11 PM MST
Astronomical Twilight 4:07 AM MST 8:46 PM MST
Moon 5:19 AM MST (4/28) 6:55 PM MST (4/28)
Length of Visible Light 14h 25m
Length of Day
13h 31m
Waning Crescent, 0% of the Moon is Illuminated
Apr 28
Waning Crescent
Apr 28
New
May 6
First Quarter
May 14
Full
May 21
Last Quarter

Hourly Weather History & Observations

Time (MST) Temp. Windchill Dew Point Humidity Pressure Visibility Wind Dir Wind Speed Gust Speed Precip Events Conditions
12:15 AM 39.2 °F 35.0 °F 19.4 °F 45% 30.07 in 10.0 mi SW 5.8 mph - N/A   Clear
12:35 AM 39.2 °F 34.2 °F 19.4 °F 45% 30.07 in 10.0 mi SW 6.9 mph - N/A   Clear
12:55 AM 41.0 °F 35.8 °F 19.4 °F 42% 30.08 in 10.0 mi SW 8.1 mph - N/A   Clear
1:15 AM 41.0 °F 35.2 °F 19.4 °F 42% 30.07 in 10.0 mi SW 9.2 mph - N/A   Clear
1:35 AM 39.2 °F 33.0 °F 19.4 °F 45% 30.07 in 10.0 mi SW 9.2 mph - N/A   Clear
2:15 AM 39.2 °F 34.2 °F 19.4 °F 45% 30.06 in 10.0 mi SW 6.9 mph - N/A   Clear
2:35 AM 39.2 °F 33.6 °F 21.2 °F 49% 30.06 in 10.0 mi SW 8.1 mph - N/A   Clear
2:55 AM 39.2 °F 33.0 °F 21.2 °F 49% 30.06 in 10.0 mi SW 9.2 mph - N/A   Clear
3:15 AM 39.2 °F 34.2 °F 21.2 °F 49% 30.06 in 10.0 mi SW 6.9 mph - N/A   Clear
3:35 AM 39.2 °F 35.9 °F 21.2 °F 49% 30.05 in 10.0 mi SW 4.6 mph - N/A   Clear
3:55 AM 39.2 °F 34.2 °F 21.2 °F 49% 30.05 in 10.0 mi SW 6.9 mph - N/A   Clear
4:15 AM 37.4 °F 32.8 °F 21.2 °F 52% 30.06 in 10.0 mi WSW 5.8 mph - N/A   Clear
5:55 AM 39.2 °F 34.2 °F 23.0 °F 52% 30.09 in 10.0 mi WSW 6.9 mph - N/A   Unknown
6:15 AM 39.2 °F 33.6 °F 23.0 °F 52% 30.09 in 10.0 mi SW 8.1 mph - N/A   Clear
6:35 AM 41.0 °F 36.4 °F 23.0 °F 49% 30.10 in 10.0 mi WSW 6.9 mph - N/A   Clear
7:15 AM 44.6 °F 40.2 °F 23.0 °F 43% 30.12 in 10.0 mi West 8.1 mph - N/A   Clear
7:35 AM 46.4 °F 41.9 °F 24.8 °F 43% 30.13 in 10.0 mi West 9.2 mph - N/A   Clear
7:55 AM 46.4 °F 41.1 °F 23.0 °F 40% 30.13 in 10.0 mi West 11.5 mph 18.4 mph N/A   Clear
8:15 AM 48.2 °F - 24.8 °F 40% 30.14 in 10.0 mi West 8.1 mph - N/A   Clear
8:35 AM 50.0 °F - 23.0 °F 35% 30.15 in 10.0 mi WNW 12.7 mph 20.7 mph N/A   Clear
8:55 AM 50.0 °F - 23.0 °F 35% 30.16 in 10.0 mi WNW 13.8 mph 20.7 mph N/A   Clear
9:15 AM 50.0 °F - 21.2 °F 32% 30.16 in 10.0 mi NW 15.0 mph 23.0 mph N/A   Clear
9:35 AM 50.0 °F - 21.2 °F 32% 30.16 in 10.0 mi NW 15.0 mph 23.0 mph N/A   Clear
9:55 AM 50.0 °F - 21.2 °F 32% 30.17 in 10.0 mi NW 17.3 mph 20.7 mph N/A   Clear
10:15 AM 51.8 °F - 23.0 °F 33% 30.18 in 10.0 mi NNW 12.7 mph 21.9 mph N/A   Clear
10:35 AM 51.8 °F - 24.8 °F 35% 30.18 in 10.0 mi NNW 10.4 mph 20.7 mph N/A   Clear
10:55 AM 51.8 °F - 23.0 °F 33% 30.18 in 10.0 mi WNW 12.7 mph 21.9 mph N/A   Clear
11:15 AM 53.6 °F - 23.0 °F 30% 30.18 in 10.0 mi NW 17.3 mph 21.9 mph N/A   Clear
11:35 AM 53.6 °F - 23.0 °F 30% 30.19 in 10.0 mi NW 12.7 mph 21.9 mph N/A   Clear
11:55 AM 53.6 °F - 23.0 °F 30% 30.18 in 10.0 mi NW 15.0 mph 21.9 mph N/A   Clear
12:15 PM 53.6 °F - 23.0 °F 30% 30.18 in 10.0 mi West 15.0 mph 21.9 mph N/A   Clear
12:35 PM 55.4 °F - 21.2 °F 26% 30.17 in 10.0 mi NNW 11.5 mph 19.6 mph N/A   Clear
12:55 PM 55.4 °F - 17.6 °F 23% 30.18 in 10.0 mi WNW 19.6 mph 33.4 mph N/A   Clear
1:15 PM 57.2 °F - 17.6 °F 21% 30.17 in 10.0 mi NW 17.3 mph 25.3 mph N/A   Clear
1:35 PM 57.2 °F - 19.4 °F 23% 30.17 in 10.0 mi WNW 17.3 mph 24.2 mph N/A   Clear
1:55 PM 57.2 °F - 17.6 °F 21% 30.17 in 10.0 mi WNW 18.4 mph 26.5 mph N/A   Clear
2:15 PM 57.2 °F - 17.6 °F 21% 30.16 in 10.0 mi NNW 17.3 mph 25.3 mph N/A   Clear
2:35 PM 57.2 °F - 15.8 °F 20% 30.17 in 10.0 mi NW 16.1 mph 28.8 mph N/A   Clear
2:55 PM 57.2 °F - 12.2 °F 17% 30.16 in 10.0 mi WNW 17.3 mph 23.0 mph N/A   Clear
3:15 PM 57.2 °F - 14.0 °F 18% 30.16 in 10.0 mi West 16.1 mph 27.6 mph N/A   Clear
3:35 PM 57.2 °F - 12.2 °F 17% 30.17 in 10.0 mi NNW 16.1 mph 25.3 mph N/A   Clear
4:15 PM 57.2 °F - 14.0 °F 18% 30.17 in 10.0 mi NW 18.4 mph 25.3 mph N/A   Clear
4:35 PM 57.2 °F - 15.8 °F 20% 30.17 in 10.0 mi North 17.3 mph 21.9 mph N/A   Clear
4:55 PM 55.4 °F - 15.8 °F 21% 30.17 in 10.0 mi NW 16.1 mph 24.2 mph N/A   Clear
5:15 PM 55.4 °F - 15.8 °F 21% 30.18 in 10.0 mi NW 17.3 mph 27.6 mph N/A   Clear
5:35 PM 55.4 °F - 14.0 °F 20% 30.18 in 10.0 mi NNW 16.1 mph 24.2 mph N/A   Clear
5:55 PM 53.6 °F - 10.4 °F 18% 30.19 in 10.0 mi NW 18.4 mph 24.2 mph N/A   Clear
6:15 PM 51.8 °F - 10.4 °F 19% 30.19 in 10.0 mi NW 20.7 mph - N/A   Clear
6:35 PM 50.0 °F - 8.6 °F 19% 30.20 in 10.0 mi NNW 12.7 mph - N/A   Clear
6:55 PM 48.2 °F - 10.4 °F 22% 30.20 in 10.0 mi NNW 16.1 mph - N/A   Clear
7:15 PM 48.2 °F - 8.6 °F 20% 30.21 in 10.0 mi NW 13.8 mph - N/A   Clear
7:35 PM 46.4 °F 40.4 °F 10.4 °F 23% 30.21 in 10.0 mi NNW 13.8 mph 19.6 mph N/A   Clear
8:15 PM 42.8 °F 37.0 °F 12.2 °F 29% 30.23 in 10.0 mi NW 10.4 mph - N/A   Clear
8:35 PM 44.6 °F 38.1 °F 12.2 °F 27% 30.24 in 10.0 mi NNW 13.8 mph - N/A   Clear
8:55 PM 42.8 °F 35.8 °F 14.0 °F 31% 30.25 in 10.0 mi NNW 13.8 mph - N/A   Clear
9:15 PM 42.8 °F 36.2 °F 12.2 °F 29% 30.26 in 10.0 mi NNW 12.7 mph 18.4 mph N/A   Clear
9:35 PM 41.0 °F 35.8 °F 12.2 °F 31% 30.27 in 10.0 mi North 8.1 mph - N/A   Clear
9:55 PM 39.2 °F 35.0 °F 14.0 °F 36% 30.28 in 10.0 mi NNE 5.8 mph - N/A   Clear
10:15 PM 39.2 °F 35.0 °F 14.0 °F 36% 30.28 in 10.0 mi NNE 5.8 mph - N/A   Clear
10:35 PM 39.2 °F 33.6 °F 14.0 °F 36% 30.28 in 10.0 mi NE 8.1 mph - N/A   Clear
10:55 PM 37.4 °F 31.4 °F 14.0 °F 38% 30.29 in 10.0 mi NNE 8.1 mph - N/A   Clear
11:15 PM 37.4 °F 31.4 °F 14.0 °F 38% 30.29 in 10.0 mi NNE 8.1 mph - N/A   Clear
11:35 PM 37.4 °F 31.4 °F 14.0 °F 38% 30.29 in 10.0 mi NNE 8.1 mph - N/A   Clear
11:55 PM 37.4 °F 32.8 °F 12.2 °F 36% 30.29 in 10.0 mi NE 5.8 mph - N/A   Clear